This is the latest recevied weather packets stored in our database for station/object NY3Q. If no packets are shown the sender has not sent any weather packets the latest 10 day(s).
| Time | Temp. | Humidity | Pressure | Rain* | Wind** | Luminosity | Snow |
|---|---|---|---|---|---|---|---|
| 1778103110 | 30.56° C | 56% | 1014.4 hPa | 0 mm | - | 320 W/m² | - |
| 1778102808 | 31.11° C | 57% | 1014.5 hPa | 0 mm | - | 333 W/m² | - |
| 1778102502 | 30.56° C | 59% | 1014.7 hPa | 0 mm | - | 353 W/m² | - |
| 1778102198 | 30.56° C | 60% | 1014.5 hPa | 0 mm | - | 356 W/m² | - |
| 1778101895 | 31.11° C | 59% | 1014.7 hPa | 0 mm | - | 394 W/m² | - |
| 1778101592 | 31.11° C | 58% | 1014.5 hPa | 0 mm | - | 380 W/m² | - |
| 1778101288 | 31.11° C | 59% | 1014.6 hPa | 0 mm | - | 380 W/m² | - |
| 1778100986 | 31.11° C | 59% | 1014.5 hPa | 0 mm | - | 327 W/m² | - |
| 1778100680 | 31.11° C | 59% | 1014.7 hPa | 0 mm | - | 300 W/m² | - |
| 1778100379 | 31.11° C | 59% | 1014.7 hPa | 0 mm | - | 341 W/m² | - |
| 1778100075 | 31.11° C | 57% | 1014.5 hPa | 0 mm | - | 435 W/m² | - |
| 1778099774 | 31.67° C | 56% | 1014.7 hPa | 0 mm | - | 376 W/m² | - |
| 1778099469 | 31.67° C | 58% | 1014.6 hPa | 0 mm | - | 424 W/m² | - |
| 1778099168 | 31.11° C | 57% | 1014.7 hPa | 0 mm | - | 450 W/m² | - |
| 1778098864 | 31.11° C | 58% | 1015 hPa | 0 mm | - | 456 W/m² | - |
| 1778098561 | 31.11° C | 58% | 1014.8 hPa | 0 mm | - | 397 W/m² | - |
| 1778098258 | 31.11° C | 59% | 1015 hPa | 0 mm | - | 454 W/m² | - |
| 1778097954 | 31.11° C | 59% | 1014.9 hPa | 0 mm | - | 446 W/m² | - |
| 1778097651 | 31.11° C | 58% | 1014.9 hPa | 0 mm | - | 516 W/m² | - |
| 1778097347 | 31.11° C | 58% | 1015.1 hPa | 0 mm | - | 532 W/m² | - |
| 1778097044 | 31.11° C | 59% | 1015.3 hPa | 0 mm | - | 497 W/m² | - |
| 1778096742 | 31.11° C | 57% | 1015.1 hPa | 0 mm | - | 564 W/m² | - |
| 1778096438 | 31.67° C | 57% | 1015.2 hPa | 0 mm | - | 561 W/m² | - |
| 1778096136 | 31.67° C | 57% | 1015.3 hPa | 0 mm | - | 523 W/m² | - |
| 1778095832 | 32.22° C | 55% | 1015.6 hPa | 0 mm | - | 530 W/m² | - |
* Rain latest hour (hover to see other rain measurements)
** Current wind speed in m/s (hover to see current wind gust speed)